Weather in Zori

Russia / Kaliningrad Oblast     54°55′46″N   20°11′04″E
temp.,
°C
wind,
m/s
gust,
m/s
humid.,
%
clouds,
%
prec.,
mm/h
press.,
hPa
HPBL,
m
13 may, thu
thu1323:00+12ese67880 0.0 100953
02:00+10ese67890 0.0 100960
05:00+9se44890 0.0 100740
08:00+10ese44865 0.0 100634
11:00+10ene45875 0.0 100581
14:00+11ene45840 0.0 100480
17:00+11ne458587 0.0 100352
20:00+10ene57830 0.0 100263
14 may, fri
fri1423:00+9ene7119398 0.0 1002203
02:00+8ne6893100 0.0 1001198
05:00+8nne71095100 0.4 1001227
08:00+8nne6896100 0.4 1001138
11:00+8n459797 0.0 100197
14:00+8nw4596100 0.1 1002116
17:00+8wnw5694100 0.0 1003167
20:00+9wnw4589100 0.0 1003135
15 may, sat
sat1523:00+9w4488100 0.0 100441
02:00+9wsw4589100 0.0 100468
05:00+8wsw448872 0.0 100558
08:00+9sw44865 0.0 100659
11:00+9w45875 0.0 1007115
14:00+9wnw3389100 0.1 100872
17:00+9wnw238994 0.1 100841
20:00+9ne019188 0.1 100812
16 may, sun
sun1623:00+9se449391 0.0 100831
02:00+9sse459499 0.0 100852
05:00+9sse4692100 0.0 100771
08:00+9se2297100 2.6 100720
11:00+10se5795100 1.6 100799
14:00+12ssw3389100 2.2 100656
17:00+11w1195100 2.3 100543
20:00+10w3396100 2.6 100529
17 may, mon
mon1723:00+9ssw2297100 0.0 100512
02:00+10ssw3392100 0.0 100524
05:00+9sw4692100 0.0 100578
08:00+10sw56860 0.0 100691
11:00+11wsw57820 0.0 1007119
14:00+11w33830 0.0 1007102
17:00+11e447829 0.0 1006114
20:00+11ese5588100 0.2 100638